Back to catalog

STARLINK-30305

AliveCommunicationsVLEO
NORAD 57775·PAYLOAD·🇺🇸 United States

Launched Sep 4, 2023 from Cape Canaveral Space Force Station

Loading…

Next Passes (next 24 hours)

TLE

FreshSource: CelesTrak SupGP

Epoch: Sep 14, 2026, 20:44 UTC

1 57775C 23134E   26257.86437500  .00028485  00000+0  10317-2 0  2576
2 57775  43.0030 206.3993 0001316 261.5002 165.2791 15.27565411    11

Track STARLINK-30305 in real time with AllMySat

Download on the App Store